Location: Azul
(36.7830°S, 59.8500°W)
Time: 02:50:02
(UTC-03:00)

ISS - Pass Details

Date: 30 November 2020
Orbit: 418 x 420 km, 51.6° (Epoch: 04 December)

Event Time Altitude Azimuth Distance (km) Brightness Sun altitude
Exits shadow 04:03:34 19° 257° (WSW) 1,087 -2.0 -15.5°
Maximum altitude 04:05:13 28° 212° (SSW) 836 -2.2 -15.3°
Drops below altitude 10° 04:08:15 10° 151° (SSE) 1,532 0.3 -14.9°
Sets 04:10:34 0° 138° (SE) 2,404 2.0 -14.5°
